CDT,Max TemperatureF,Mean TemperatureF,Min TemperatureF,Max Dew PointF,MeanDew PointF,Min DewpointF,Max Humidity, Mean Humidity, Min Humidity, Max Sea Level PressureIn, Mean Sea Level PressureIn, Min Sea Level PressureIn, Max VisibilityMiles, Mean VisibilityMiles, Min VisibilityMiles, Max Wind SpeedMPH, Mean Wind SpeedMPH, Max Gust SpeedMPH,PrecipitationIn, CloudCover, Events, WindDirDegrees
2013-9-1,85,70,55,62,52,47,86,57,27,30.07,30.00,29.91,10,10,10,17,4,22,0.00,0,,17
2013-9-2,89,70,50,60,54,48,96,64,31,30.11,30.04,29.96,10,10,10,16,6,20,0.00,0,,144
2013-9-3,94,78,61,59,56,53,90,60,30,30.02,29.95,29.87,10,10,10,21,9,25,0.00,0,,157
2013-9-4,98,79,60,64,58,55,84,55,26,30.12,29.98,29.93,10,10,2,21,8,25,0.00,0,,131
2013-9-5,96,81,66,60,57,55,73,50,26,30.06,30.00,29.94,10,10,10,16,8,23,0.00,0,,141
2013-9-6,103,81,59,59,54,48,87,53,18,29.97,29.90,29.81,10,10,9,14,7,20,0.00,0,,171
2013-9-7,99,79,59,66,59,51,84,55,26,29.92,29.88,29.83,10,10,10,14,6,18,0.00,0,,115
2013-9-8,101,83,65,68,62,49,100,61,21,29.98,29.86,29.68,10,4,0,17,7,23,0.00,3,Fog,129
2013-9-9,96,81,66,63,57,51,68,46,24,29.94,29.75,29.67,10,9,2,25,9,35,0.50,3,Rain-Thunderstorm,247
2013-9-10,85,74,63,61,59,57,87,64,40,30.06,29.95,29.82,10,10,10,22,9,30,0.00,1,,31
2013-9-11,76,69,61,66,62,59,97,79,60,30.18,30.12,30.06,10,9,1,12,4,14,0.34,5,Rain,97
2013-9-12,83,71,59,64,59,53,97,68,39,30.23,30.19,30.15,10,9,6,20,8,33,0.00,4,,85
2013-9-13,66,61,55,55,52,47,93,73,52,30.19,30.11,30.01,10,10,8,16,8,22,0.02,7,Rain,126
2013-9-14,77,69,60,63,55,48,93,77,60,30.05,29.91,29.80,10,10,9,18,10,26,T,6,,153
2013-9-15,67,63,58,63,57,52,93,76,58,30.26,30.06,29.86,10,8,1,23,12,29,2.82,7,Rain-Thunderstorm,35
2013-9-16,59,57,54,54,52,50,100,88,75,30.31,30.24,30.14,10,8,2,14,8,17,0.01,8,Rain,117
2013-9-17,82,69,55,65,59,53,93,74,55,30.13,29.91,29.74,10,10,10,18,9,24,0.00,6,,157
2013-9-18,92,75,58,69,63,54,93,67,41,29.76,29.66,29.58,10,9,0,35,7,47,0.04,0,Rain-Thunderstorm,166
2013-9-19,66,56,46,59,51,43,97,75,52,30.14,29.92,29.67,10,9,1,23,8,29,0.10,5,Rain-Thunderstorm,356
2013-9-20,74,56,38,52,45,38,100,71,41,30.19,30.10,29.99,10,10,10,14,3,17,0.00,0,,297
2013-9-21,83,64,44,54,49,43,100,67,33,30.01,29.87,29.73,10,10,2,20,7,23,0.00,0,,156
2013-9-22,84,68,52,57,52,48,83,60,37,29.73,29.64,29.54,10,10,10,24,13,35,0.00,0,,143
2013-9-23,67,62,56,54,50,47,86,71,56,29.82,29.60,29.47,10,9,2,28,15,39,0.60,5,Rain,102
2013-9-24,76,62,47,51,46,38,93,59,25,30.02,29.94,29.85,10,10,10,18,9,23,0.00,0,,353
2013-9-25,78,63,48,54,50,45,93,68,42,29.90,29.68,29.47,10,10,7,26,15,41,0.00,0,,129
2013-9-26,83,69,54,59,52,49,80,60,40,29.62,29.56,29.45,10,10,10,21,6,28,0.00,0,,132
2013-9-27,63,55,47,53,49,45,93,77,60,29.89,29.73,29.59,10,9,2,28,8,36,0.65,5,Rain-Thunderstorm,1
2013-9-28,66,53,39,46,41,36,93,64,34,30.07,30.00,29.86,10,10,10,21,8,25,T,2,Rain,299
2013-9-29,79,59,39,46,41,36,86,54,22,30.06,29.91,29.77,10,10,10,22,8,31,0.00,0,,201
2013-9-30,84,64,44,50,45,41,93,58,22,29.78,29.72,29.63,10,10,10,17,5,23,0.00,0,,188